TimeMDT,TemperatureF,Dew PointF,Humidity,Sea Level PressureIn,VisibilityMPH,Wind Direction,Wind SpeedMPH,Gust SpeedMPH,PrecipitationIn,Events,Conditions,WindDirDegrees,DateUTC
12:15 AM,69.1,66.2,91,30.09,10.0,ESE,6.9,-,N/A,,Scattered Clouds,110,2013-08-03 06:15:00
12:35 AM,69.8,66.2,88,30.10,10.0,ESE,8.1,-,N/A,,Overcast,120,2013-08-03 06:35:00
12:55 AM,69.8,66.2,88,30.11,10.0,ESE,8.1,-,N/A,,Overcast,120,2013-08-03 06:55:00
1:15 AM,69.8,66.2,88,30.11,10.0,SE,6.9,-,N/A,,Overcast,130,2013-08-03 07:15:00
1:35 AM,69.8,66.2,88,30.11,10.0,ESE,10.4,-,N/A,,Overcast,120,2013-08-03 07:35:00
1:55 AM,69.8,66.2,88,30.11,10.0,SE,8.1,-,N/A,,Overcast,130,2013-08-03 07:55:00
2:15 AM,69.8,66.2,88,30.10,10.0,ESE,8.1,-,N/A,,Overcast,120,2013-08-03 08:15:00
2:35 AM,69.8,66.2,88,30.09,10.0,ESE,9.2,-,N/A,,Overcast,110,2013-08-03 08:35:00
2:55 AM,69.4,66.2,89,30.09,10.0,ESE,8.1,-,N/A,,Overcast,110,2013-08-03 08:55:00
3:15 AM,69.4,66.2,89,30.09,10.0,ESE,8.1,-,N/A,,Overcast,120,2013-08-03 09:15:00
3:35 AM,69.3,66.2,90,30.07,10.0,ESE,10.4,-,N/A,,Overcast,110,2013-08-03 09:35:00
3:55 AM,68.7,65.7,90,30.07,10.0,ESE,9.2,-,N/A,,Mostly Cloudy,110,2013-08-03 09:55:00
4:15 AM,68.2,65.7,92,30.07,10.0,East,10.4,-,N/A,,Mostly Cloudy,100,2013-08-03 10:15:00
4:35 AM,68.0,65.5,92,30.07,10.0,ESE,10.4,16.1,N/A,,Mostly Cloudy,110,2013-08-03 10:35:00
4:55 AM,68.0,65.3,91,30.08,10.0,ESE,9.2,-,N/A,,Overcast,120,2013-08-03 10:55:00
5:15 AM,68.2,65.3,90,30.09,10.0,ESE,8.1,-,N/A,,Overcast,120,2013-08-03 11:15:00
5:35 AM,68.4,65.3,90,30.09,10.0,SE,8.1,-,N/A,,Overcast,130,2013-08-03 11:35:00
5:55 AM,68.4,64.9,89,30.10,10.0,SE,10.4,-,N/A,,Overcast,130,2013-08-03 11:55:00
6:15 AM,68.2,64.9,89,30.11,7.0,SE,8.1,-,N/A,,Overcast,130,2013-08-03 12:15:00
6:35 AM,68.2,64.4,88,30.12,10.0,SE,6.9,-,N/A,,Overcast,140,2013-08-03 12:35:00
6:55 AM,68.4,64.6,88,30.12,10.0,SE,8.1,-,N/A,,Overcast,130,2013-08-03 12:55:00
7:15 AM,68.5,64.8,88,30.11,10.0,SE,11.5,-,N/A,,Overcast,130,2013-08-03 13:15:00
7:35 AM,68.9,64.8,87,30.13,10.0,SE,9.2,-,N/A,,Overcast,130,2013-08-03 13:35:00
7:55 AM,68.4,64.6,88,30.13,7.0,SE,11.5,16.1,N/A,,Overcast,130,2013-08-03 13:55:00
8:15 AM,68.2,64.6,88,30.14,7.0,SE,10.4,-,N/A,,Overcast,130,2013-08-03 14:15:00
8:35 AM,67.6,64.9,91,30.14,3.0,SE,6.9,-,N/A,,Overcast,140,2013-08-03 14:35:00
8:55 AM,68.2,64.8,89,30.14,5.0,SE,10.4,-,N/A,,Overcast,140,2013-08-03 14:55:00
9:15 AM,68.0,64.6,89,30.15,7.0,SE,10.4,-,N/A,,Overcast,130,2013-08-03 15:15:00
9:35 AM,68.4,64.6,88,30.16,10.0,ESE,8.1,-,N/A,,Overcast,110,2013-08-03 15:35:00
9:55 AM,68.7,64.4,86,30.17,10.0,East,11.5,-,N/A,,Overcast,100,2013-08-03 15:55:00
10:15 AM,69.1,64.6,86,30.18,10.0,East,9.2,-,N/A,,Overcast,90,2013-08-03 16:15:00
10:35 AM,69.3,64.6,85,30.20,10.0,East,13.8,-,N/A,,Overcast,80,2013-08-03 16:35:00
10:55 AM,69.6,64.4,83,30.21,10.0,East,17.3,20.7,N/A,,Overcast,90,2013-08-03 16:55:00
11:15 AM,68.5,64.4,87,30.22,4.0,East,15.0,-,N/A,,Overcast,90,2013-08-03 17:15:00
11:35 AM,67.6,64.4,89,30.22,5.0,East,18.4,-,N/A,,Overcast,90,2013-08-03 17:35:00
11:55 AM,67.1,63.7,89,30.22,5.0,East,16.1,24.2,N/A,,Overcast,90,2013-08-03 17:55:00
12:15 PM,66.9,63.5,89,30.22,5.0,East,16.1,25.3,N/A,,Overcast,90,2013-08-03 18:15:00
12:35 PM,65.8,63.0,90,30.22,3.0,East,21.9,27.6,N/A,,Overcast,100,2013-08-03 18:35:00
12:55 PM,66.4,62.6,88,30.21,7.0,East,18.4,24.2,N/A,,Overcast,100,2013-08-03 18:55:00
1:15 PM,67.3,62.6,85,30.21,7.0,ESE,18.4,-,N/A,,Overcast,110,2013-08-03 19:15:00
1:35 PM,68.2,62.6,82,30.20,4.0,ESE,17.3,25.3,N/A,,Haze,110,2013-08-03 19:35:00
1:55 PM,69.3,62.6,79,30.20,7.0,ESE,18.4,24.2,N/A,,Overcast,120,2013-08-03 19:55:00
2:15 PM,72.9,63.3,72,30.18,10.0,SE,17.3,25.3,N/A,,Overcast,130,2013-08-03 20:15:00
2:35 PM,74.7,62.8,66,30.17,10.0,ESE,24.2,31.1,N/A,,Mostly Cloudy,120,2013-08-03 20:35:00
2:55 PM,75.2,62.4,64,30.16,10.0,ESE,18.4,29.9,N/A,,Scattered Clouds,120,2013-08-03 20:55:00
3:15 PM,75.9,62.4,63,30.15,10.0,ESE,19.6,24.2,N/A,,Scattered Clouds,110,2013-08-03 21:15:00
3:35 PM,77.4,62.6,60,30.16,10.0,SSE,18.4,24.2,N/A,,Scattered Clouds,150,2013-08-03 21:35:00
3:55 PM,77.2,62.6,61,30.16,10.0,SSE,15.0,21.9,N/A,,Mostly Cloudy,150,2013-08-03 21:55:00
4:15 PM,75.2,61.7,63,30.17,10.0,SE,13.8,24.2,N/A,,Overcast,130,2013-08-03 22:15:00
4:35 PM,74.8,61.5,63,30.17,10.0,SSE,16.1,21.9,N/A,,Overcast,160,2013-08-03 22:35:00
4:55 PM,74.7,61.7,64,30.18,10.0,SSE,12.7,-,N/A,,Overcast,150,2013-08-03 22:55:00
5:15 PM,73.6,61.7,66,30.17,10.0,SSE,10.4,-,N/A,Thunderstorm,Overcast,160,2013-08-03 23:15:00
5:35 PM,72.5,62.4,71,30.17,10.0,SSE,8.1,-,N/A,,Scattered Clouds,160,2013-08-03 23:35:00
5:55 PM,72.5,62.2,70,30.16,10.0,SSE,10.4,-,N/A,,Mostly Cloudy,160,2013-08-03 23:55:00
6:15 PM,71.8,62.6,73,30.17,10.0,South,6.9,-,N/A,,Overcast,190,2013-08-04 00:15:00
6:35 PM,71.1,62.1,73,30.17,10.0,South,10.4,-,N/A,,Overcast,180,2013-08-04 00:35:00
6:55 PM,67.8,63.7,87,30.18,1.8,NW,5.8,-,0.15,Rain-Thunderstorm,Heavy Thunderstorms and Rain,310,2013-08-04 00:55:00
7:15 PM,68.2,63.3,84,30.17,10.0,NE,6.9,-,0.01,Rain-Thunderstorm,Light Thunderstorms and Rain,40,2013-08-04 01:15:00
7:35 PM,69.4,63.1,80,30.18,10.0,SSE,13.8,24.2,0.02,Rain,Light Rain,160,2013-08-04 01:35:00
7:55 PM,69.1,63.1,81,30.18,10.0,East,4.6,24.2,0.02,,Light Drizzle,90,2013-08-04 01:55:00
8:15 PM,68.9,63.7,83,30.18,10.0,SE,4.6,-,N/A,,Scattered Clouds,140,2013-08-04 02:15:00
8:35 PM,68.4,63.9,85,30.18,10.0,East,9.2,-,N/A,,Mostly Cloudy,100,2013-08-04 02:35:00
8:55 PM,68.0,64.2,88,30.20,10.0,SSE,4.6,-,N/A,,Overcast,150,2013-08-04 02:55:00
9:15 PM,68.4,64.4,87,30.21,10.0,ESE,4.6,-,N/A,,Overcast,110,2013-08-04 03:15:00
9:35 PM,68.2,64.8,89,30.21,10.0,ESE,4.6,-,N/A,,Overcast,110,2013-08-04 03:35:00
9:55 PM,68.0,64.8,89,30.22,10.0,East,5.8,-,N/A,,Overcast,90,2013-08-04 03:55:00
10:15 PM,68.0,64.6,89,30.21,10.0,ESE,5.8,-,N/A,,Overcast,110,2013-08-04 04:15:00
10:35 PM,68.0,64.6,89,30.21,10.0,East,5.8,-,N/A,,Overcast,90,2013-08-04 04:35:00
10:55 PM,68.0,64.8,89,30.21,10.0,SE,3.5,-,N/A,,Overcast,140,2013-08-04 04:55:00
11:15 PM,67.6,64.9,91,30.20,10.0,Calm,Calm,-,N/A,,Overcast,0,2013-08-04 05:15:00
11:35 PM,67.6,65.3,92,30.20,10.0,Calm,Calm,-,N/A,,Overcast,0,2013-08-04 05:35:00
11:55 PM,67.6,65.3,92,30.18,10.0,Calm,Calm,-,N/A,,Overcast,0,2013-08-04 05:55:00